Location: Abrams Village
(46.4560°N, 64.0811°W)
Time: 22:13:28
(UTC+00:00)

Daily predictions for brighter satellites

Satellite Brightness Start Highest point End
(mag) Time Altitude Azimuth Time Altitude Azimuth Time Altitude Azimuth
CZ-4C R/B 3.2 20:51:01 10° NW 20:58:06 87° SW 21:06:51 10° SE
Cosmos 2263 Rocket 2.7 20:53:22 10° NNW 20:58:36 37° NE 21:03:50 10° ESE
Lacrosse 5 rocket 3.0 20:57:36 10° NW 21:00:01 16° N 21:02:24 10° NE
Okean 1-7 Rocket 3.7 21:00:46 10° N 21:05:05 54° ENE 21:09:20 10° SSE
Cosmos 1484 Rocket 2.4 21:04:05 10° SSE 21:07:34 82° ENE 21:11:04 10° N
NOSS 7 (H) 4.1 21:04:42 10° NW 21:07:39 86° SW 21:10:55 10° SE
SMAP 3.3 21:08:33 10° SE 21:13:01 49° ENE 21:17:31 10° N
MOS 1 Rocket 4.2 21:10:01 10° SE 21:14:29 33° ENE 21:19:09 10° N
CENTAUR R/B 4.1 21:09:15 10° WNW 21:14:31 27° NNW 21:20:47 10° NE
Landsat 7 4.1 21:12:24 10° SE 21:16:46 42° ENE 21:21:10 10° N
Cosmos 1953 Rocket 4.3 21:12:54 10° N 21:16:56 32° ENE 21:20:57 10° SE
NOSS 2-3 (C) 3.3 21:14:07 10° SSW 21:17:28 49° ESE 21:20:53 10° NE
Cosmos 1503 Rocket 4.3 21:13:02 10° SSW 21:18:15 71° WNW 21:23:27 10° NNE
Cosmos 2227 Rocket 2.2 21:15:25 10° NNW 21:21:06 84° ENE 21:26:45 10° SSE
Meteor 1-25 Rocket 4.3 21:15:54 10° N 21:21:44 76° ENE 21:27:28 10° SSE
Cosmos 1825 Rocket 3.5 21:19:44 10° N 21:24:03 62° E 21:28:17 10° SSE
Cosmos 1076 Rocket 3.9 21:20:19 10° N 21:24:24 40° ENE 21:28:29 10° SSE
Thor Agena Rocket 3.5 21:23:05 10° SSE 21:28:16 83° ENE 21:33:26 10° NNW
Cosmos 2098 Rocket 4.2 21:24:03 10° SSW 21:28:21 49° WNW 21:33:23 10° N
Cosmos 1697 Rocket 2.8 21:24:22 10° SSW 21:29:59 80° WNW 21:35:39 10° NNE
Cosmos 1354 Rocket 4.1 21:24:49 10° SSW 21:30:05 80° WNW 21:35:21 10° NNE
NOSS 2-3 (D) 3.1 21:28:10 10° SW 21:31:51 85° SE 21:35:17 13° NE
NOSS 3 (A) 4.2 21:29:54 10° NNW 21:32:19 61° NE 21:35:29 10° SE
Cosmos 372 Rocket 4.4 21:27:45 10° S 21:32:33 41° ESE 21:37:20 10° NE
NOSS 2-3 (E) 3.1 21:29:38 10° SW 21:33:18 86° NW 21:36:43 13° NE
Cosmos 1898 Rocket 4.1 21:31:13 10° SSE 21:35:53 36° ESE 21:40:13 12° NE
SL-16 R/B 3.0 21:31:27 10° N 21:37:36 65° WNW 21:43:42 10° SSW
IRS-P3 4.2 21:38:01 10° SE 21:43:09 53° ENE 21:48:19 10° N
USA 238 DEB 3.5 21:42:00 10° SSW 21:48:02 75° SE 21:53:49 14° NE
USA 238 3.5 21:42:06 10° SSW 21:48:09 74° SE 21:53:56 14° NE
Cosmos 1937 Rocket 4.1 21:44:51 10° SSE 21:49:29 34° ESE 21:52:44 17° NE
Cosmos 990 Rocket 4.4 21:46:25 10° SSW 21:51:28 62° WNW 21:56:37 10° NNE
Cosmos 923 Rocket 4.5 21:47:00 10° N 21:51:49 37° ENE 21:56:36 10° SE
Okean 1 3.7 21:50:27 10° SSE 21:53:40 32° E 21:54:58 24° NE
Cosmos 2058 Rocket 3.3 21:49:50 10° SSE 21:54:07 48° E 21:58:26 10° NNE
USA 215 4.1 21:49:37 15° NE 21:54:16 36° N 22:00:07 10° WNW
Cosmos 1606 Rocket 4.2 21:53:15 10° SSW 21:57:36 56° WNW 22:01:59 10° N
BREEZE M DEB (TANK) 1.6 21:58:51 10° W 22:01:06 61° NNW 22:01:26 50° NNE
GEOS 3 Rocket 3.7 21:56:57 16° NE 22:01:21 83° SE 22:06:43 10° SW
Cosmos-2242 3.1 21:58:19 10° S 22:02:26 53° E 22:05:56 14° NNE
CZ-2D R/B 3.1 22:02:34 10° S 22:05:40 64° WSW 22:08:48 10° NNW
Cosmos 44 Rocket 4.3 22:02:51 10° NNW 22:07:21 29° NE 22:08:34 27° ENE
Gbstr 26 Del rocket 3.3 22:05:39 10° W 22:09:34 46° NNW 22:10:58 30° NE
Cosmos 1655 Rocket 4.1 22:04:03 10° N 22:10:18 79° W 22:16:30 10° S
Cosmos 2082 3.6 22:04:44 10° NNW 22:10:27 67° ENE 22:16:08 10° SE
Aureole 1 Rocket 3.5 22:08:10 10° SSW 22:12:48 82° WNW 22:18:38 11° NNE
Resurs 1-3 3.8 22:09:12 10° SE 22:13:15 42° ENE 22:17:18 10° N
SAR-Lupe-4 4.5 22:11:58 10° S 22:15:24 50° W 22:18:53 10° NNW
ARIANE 5 R/B 3.1 22:11:41 10° S 22:16:41 58° WSW 22:21:46 10° NNW
IRAS Rocket 4.4 22:11:51 10° SE 22:17:00 44° ENE 22:22:10 10° N
EXPRESS MD2 2.5 22:15:33 10° WSW 22:18:07 82° SSE 22:18:41 57° E
CZ-2D R/B 3.4 22:16:23 10° SSE 22:20:29 59° ENE 22:24:33 10° N
SL-16 R/B 3.0 22:16:42 10° SSE 22:21:27 29° ESE 22:21:40 29° E
Cosmos 1680 Rocket 3.6 22:18:01 10° NNW 22:23:06 49° ENE 22:27:08 16° SE
Cosmos 2237 4.4 22:17:57 10° S 22:23:28 51° ESE 22:25:53 31° NE
Radarsat Rocket 4.5 22:17:42 10° SE 22:25:34 63° ENE 22:32:32 10° N
NOAA 6 4.2 22:23:43 10° SE 22:28:34 46° ENE 22:33:25 10° N
YAOGAN 1 2.4 22:24:41 10° SSE 22:28:52 62° ENE 22:33:05 10° N
Cosmos 1844 Rocket 3.0 22:28:37 10° NNW 22:34:00 42° NE 22:34:41 40° ENE
Cosmos 1980 Rocket 2.8 22:29:27 10° SW 22:35:00 56° WNW 22:39:20 17° NNE
NOAA 15 4.5 22:31:02 10° SSE 22:36:19 81° ENE 22:41:37 10° NNW
Lacrosse 5 rocket 3.0 22:35:17 10° NW 22:36:57 18° N 22:36:57 18° N
Cosmos 2219 3.6 22:32:46 10° NNW 22:38:28 64° WSW 22:44:07 10° SSE
PSLV R/B 3.3 22:37:39 10° SSE 22:42:00 66° NE 22:45:43 10° N
Cosmos 2263 Rocket 3.5 22:37:16 10° NW 22:42:33 40° WSW 22:47:49 10° S
BREEZE-M DEB (TANK) 4.3 22:18:31 10° WNW 22:44:20 86° NNE 22:47:19 37° ESE
SPOT 1/Viking Rocket 3.9 22:39:43 10° S 22:44:53 67° WSW 22:50:05 10° NNW
Meteor 2-2 Rocket 4.4 22:40:12 10° SSW 22:45:49 73° WNW 22:51:28 10° N
SKYMED 2 3.8 22:45:05 25° N 22:47:32 68° WNW 22:51:51 10° SSW
Cosmos 2278 4.2 22:42:25 10° S 22:47:01 39° SE 22:47:01 39° SE
Meteor 1-26 Rocket 4.4 22:42:46 10° SSW 22:48:07 66° WNW 22:53:27 10° N
USA 308 3.9 22:45:59 10° SSW 22:47:47 28° S 22:47:47 28° S
COSMOS 2455 2.7 22:44:57 10° SSW 22:50:54 69° ESE 22:52:28 49° NE
COSMO-SKYMED 1 2.3 22:53:03 86° NW 22:53:07 87° WNW 22:57:13 10° SSW
Cosmos 1553 Rocket 4.0 22:47:34 10° SSW 22:53:45 80° W 23:00:06 10° N
S3M 4.0 22:48:54 10° SSE 22:55:01 53° E 22:55:37 51° ENE
Cosmos 2369 4.0 22:49:46 10° SW 22:55:27 67° WNW 22:58:20 30° NNE
USA 59 Rocket 2.3 22:55:57 10° S 22:56:13 11° S 22:56:13 11° S
SL-19 R/B 4.3 22:58:57 10° S 23:04:23 76° WSW 23:10:09 10° NNW
Cosmos 1709 Rocket 4.3 23:00:07 10° N 23:04:34 45° NNE 23:04:34 45° NNE
Cosmos 2360 Rocket 4.0 23:02:23 10° SSE 23:03:50 17° SSE 23:03:50 17° SSE
CENTAUR R/B 4.4 23:02:21 10° NW 23:07:50 22° N 23:09:08 21° NNE
Cosmos 1745 Rocket 3.8 23:05:00 10° N 23:11:12 84° E 23:17:20 10° S
Cosmos 2221 4.4 23:08:39 10° S 23:09:58 20° S 23:09:58 20° S
Cosmos 2112 Rocket 4.3 23:20:12 10° NNW 23:25:21 63° WSW 23:25:57 58° SW
Cosmos 2333 Rocket 3.0 23:21:09 10° SSW 23:24:52 41° S 23:24:52 41° S
BREEZE-M DEB (TANK) 4.2 23:21:16 10° SW 23:26:18 46° SSW 23:26:18 46° SSW
Cosmos 2322 Rocket 3.7 23:28:21 10° S 23:30:37 25° S 23:30:37 25° S
USA 215 3.9 23:36:58 41° N 23:36:58 41° N 23:42:27 10° NW
